Previsão horária em Ploty

Hoje, 8 Março, Segunda-feira

Tempo Temperatura Precipitação Vento Pressão Humidade
00:00 -7°C° 0 mm 4 m/s 731 mmHg 85%
01:00 -8°C° 0 mm 5 m/s 731 mmHg 85%
02:00 -8°C° 0 mm 4 m/s 731 mmHg 81%
03:00 -8°C° 0 mm 5 m/s 731 mmHg 84%
04:00 -10°C° 0 mm 5 m/s 731 mmHg 86%
05:00 -10°C° 0 mm 5 m/s 731 mmHg 88%
06:00 -10°C° 0 mm 5 m/s 731 mmHg 89%
07:00 -10°C° 0 mm 5 m/s 731 mmHg 91%
08:00 -10°C° 0 mm 5 m/s 731 mmHg 92%
09:00 -8°C° 0 mm 5 m/s 732 mmHg 90%
10:00 -7°C° 0 mm 5 m/s 732 mmHg 88%
11:00 -7°C° 0 mm 5 m/s 733 mmHg 85%
12:00 -6°C° 0 mm 5 m/s 733 mmHg 84%
13:00 -6°C° 0 mm 5 m/s 733 mmHg 83%
14:00 -5°C° 0 mm 4 m/s 733 mmHg 82%
15:00 -7°C° 0 mm 4 m/s 734 mmHg 84%
16:00 -7°C° 0 mm 3 m/s 734 mmHg 85%
17:00 -7°C° 0 mm 2 m/s 734 mmHg 87%
18:00 -7°C° 0.1 mm 2 m/s 734 mmHg 89%
19:00 -8°C° 0.1 mm 2 m/s 735 mmHg 92%
20:00 -8°C° 0.1 mm 2 m/s 735 mmHg 94%
21:00 -9°C° 0 mm 2 m/s 736 mmHg 93%
22:00 -10°C° 0 mm 2 m/s 736 mmHg 92%
23:00 -13°C° 0 mm 2 m/s 736 mmHg 91%

Amanhã, 9 Março, Terça-feira

Tempo Temperatura Precipitação Vento Pressão Humidade
00:00 -13°C° 0 mm 2 m/s 736 mmHg 91%
01:00 -14°C° 0 mm 2 m/s 737 mmHg 91%
02:00 -14°C° 0 mm 2 m/s 737 mmHg 92%
03:00 -14°C° 0 mm 2 m/s 737 mmHg 93%
04:00 -14°C° 0 mm 2 m/s 738 mmHg 94%
05:00 -14°C° 0 mm 2 m/s 738 mmHg 95%
06:00 -15°C° 0 mm 3 m/s 739 mmHg 95%
07:00 -14°C° 0 mm 3 m/s 739 mmHg 95%
08:00 -14°C° 0 mm 3 m/s 740 mmHg 94%
09:00 -14°C° 0 mm 3 m/s 740 mmHg 92%
10:00 -15°C° 0 mm 4 m/s 741 mmHg 90%
11:00 -14°C° 0 mm 4 m/s 741 mmHg 88%
12:00 -14°C° 0 mm 4 m/s 741 mmHg 87%
13:00 -12°C° 0 mm 3 m/s 742 mmHg 85%
14:00 -12°C° 0 mm 3 m/s 742 mmHg 84%
15:00 -13°C° 0 mm 3 m/s 742 mmHg 86%
16:00 -13°C° 0 mm 2 m/s 742 mmHg 88%
17:00 -13°C° 0 mm 2 m/s 742 mmHg 90%
18:00 -14°C° 0 mm 2 m/s 743 mmHg 91%
19:00 -14°C° 0 mm 2 m/s 744 mmHg 92%
20:00 -15°C° 0 mm 2 m/s 744 mmHg 93%
21:00 -16°C° 0 mm 2 m/s 744 mmHg 93%
22:00 -17°C° 0 mm 2 m/s 745 mmHg 94%
23:00 -18°C° 0 mm 2 m/s 745 mmHg 94%

Depois de amanhã, 10 Março, Quarta-feira

Tempo Temperatura Precipitação Vento Pressão Humidade
00:00 -19°C° 0 mm 2 m/s 745 mmHg 94%
01:00 -19°C° 0 mm 2 m/s 746 mmHg 95%
02:00 -20°C° 0 mm 2 m/s 746 mmHg 95%
03:00 -19°C° 0 mm 1 m/s 746 mmHg 96%
04:00 -19°C° 0 mm 1 m/s 747 mmHg 97%
05:00 -20°C° 0 mm 1 m/s 747 mmHg 98%
06:00 -19°C° 0 mm 1 m/s 747 mmHg 97%
07:00 -18°C° 0 mm 1 m/s 748 mmHg 96%
08:00 -17°C° 0 mm 1 m/s 748 mmHg 95%
09:00 -15°C° 0 mm 1 m/s 748 mmHg 93%
10:00 -14°C° 0 mm 1 m/s 748 mmHg 91%
11:00 -13°C° 0 mm 1 m/s 748 mmHg 89%
12:00 -12°C° 0.1 mm 1 m/s 748 mmHg 89%
13:00 -11°C° 0.1 mm 1 m/s 748 mmHg 90%
14:00 -11°C° 0.1 mm 1 m/s 748 mmHg 91%
15:00 -13°C° 0.2 mm 2 m/s 748 mmHg 92%
16:00 -14°C° 0.2 mm 2 m/s 748 mmHg 93%
17:00 -15°C° 0.2 mm 3 m/s 748 mmHg 95%
18:00 -16°C° 0.1 mm 3 m/s 749 mmHg 94%
19:00 -17°C° 0.1 mm 3 m/s 749 mmHg 94%
20:00 -19°C° 0.1 mm 4 m/s 750 mmHg 93%
21:00 -21°C° 0 mm 3 m/s 750 mmHg 93%
22:00 -22°C° 0 mm 3 m/s 750 mmHg 92%
23:00 -24°C° 0 mm 3 m/s 750 mmHg 91%

11 Março, Quinta-feira

Tempo Temperatura Precipitação Vento Pressão Humidade
00:00 -25°C° 0 mm 3 m/s 751 mmHg 90%
01:00 -26°C° 0 mm 3 m/s 751 mmHg 89%
02:00 -26°C° 0 mm 2 m/s 751 mmHg 88%
03:00 -26°C° 0 mm 2 m/s 751 mmHg 87%
04:00 -27°C° 0 mm 2 m/s 751 mmHg 87%
05:00 -27°C° 0 mm 2 m/s 751 mmHg 86%
06:00 -26°C° 0 mm 2 m/s 752 mmHg 86%
07:00 -26°C° 0 mm 2 m/s 752 mmHg 85%
08:00 -25°C° 0 mm 2 m/s 752 mmHg 85%
09:00 -23°C° 0 mm 2 m/s 752 mmHg 83%
10:00 -20°C° 0 mm 2 m/s 752 mmHg 81%
11:00 -18°C° 0 mm 2 m/s 752 mmHg 79%
12:00 -17°C° 0 mm 2 m/s 752 mmHg 79%
13:00 -17°C° 0 mm 2 m/s 752 mmHg 80%
14:00 -16°C° 0 mm 2 m/s 752 mmHg 80%
15:00 -17°C° 0 mm 2 m/s 752 mmHg 83%
16:00 -18°C° 0 mm 2 m/s 752 mmHg 86%
17:00 -19°C° 0 mm 2 m/s 751 mmHg 88%
18:00 -22°C° 0 mm 3 m/s 751 mmHg 88%
19:00 -23°C° 0 mm 3 m/s 752 mmHg 87%
20:00 -24°C° 0 mm 3 m/s 752 mmHg 87%
21:00 -24°C° 0 mm 3 m/s 752 mmHg 87%
22:00 -24°C° 0 mm 3 m/s 752 mmHg 87%
23:00 -24°C° 0 mm 3 m/s 752 mmHg 87%

12 Março, Sexta-feira

Tempo Temperatura Precipitação Vento Pressão Humidade
00:00 -24°C° 0 mm 3 m/s 751 mmHg 87%
01:00 -24°C° 0 mm 3 m/s 751 mmHg 87%
02:00 -24°C° 0 mm 3 m/s 751 mmHg 87%
03:00 -25°C° 0 mm 4 m/s 751 mmHg 86%
04:00 -24°C° 0 mm 4 m/s 751 mmHg 86%
05:00 -24°C° 0 mm 4 m/s 751 mmHg 86%
06:00 -22°C° 0 mm 4 m/s 751 mmHg 84%
07:00 -21°C° 0 mm 5 m/s 751 mmHg 83%
08:00 -20°C° 0 mm 5 m/s 750 mmHg 81%
09:00 -18°C° 0 mm 5 m/s 750 mmHg 81%
10:00 -17°C° 0 mm 6 m/s 750 mmHg 81%
11:00 -15°C° 0 mm 6 m/s 750 mmHg 82%
12:00 -15°C° 0 mm 6 m/s 750 mmHg 82%
13:00 -14°C° 0 mm 6 m/s 750 mmHg 82%
14:00 -12°C° 0 mm 6 m/s 749 mmHg 82%
15:00 -12°C° 0 mm 6 m/s 749 mmHg 81%
16:00 -14°C° 0 mm 6 m/s 748 mmHg 80%
17:00 -14°C° 0 mm 6 m/s 748 mmHg 80%
18:00 -14°C° 0 mm 7 m/s 748 mmHg 77%
19:00 -14°C° 0 mm 7 m/s 748 mmHg 74%
20:00 -14°C° 0 mm 7 m/s 748 mmHg 71%
21:00 -13°C° 0 mm 7 m/s 747 mmHg 71%
22:00 -13°C° 0 mm 7 m/s 747 mmHg 70%
23:00 -13°C° 0 mm 8 m/s 746 mmHg 70%

13 Março, Sábado

Tempo Temperatura Precipitação Vento Pressão Humidade
00:00 -13°C° 0.1 mm 8 m/s 746 mmHg 77%
01:00 -13°C° 0.1 mm 8 m/s 745 mmHg 83%
02:00 -12°C° 0.1 mm 9 m/s 745 mmHg 89%
03:00 -12°C° 0.3 mm 9 m/s 745 mmHg 90%
04:00 -12°C° 0.3 mm 9 m/s 744 mmHg 91%
05:00 -12°C° 0.3 mm 9 m/s 744 mmHg 92%
06:00 -12°C° 0.4 mm 8 m/s 744 mmHg 92%
07:00 -11°C° 0.4 mm 8 m/s 744 mmHg 92%
08:00 -11°C° 0.4 mm 8 m/s 744 mmHg 92%
09:00 -10°C° 0.2 mm 8 m/s 744 mmHg 92%
10:00 -8°C° 0.2 mm 7 m/s 745 mmHg 92%
11:00 -8°C° 0.2 mm 7 m/s 745 mmHg 93%
12:00 -7°C° 0.1 mm 7 m/s 745 mmHg 93%
13:00 -5°C° 0.1 mm 6 m/s 744 mmHg 93%
14:00 -4°C° 0.1 mm 6 m/s 744 mmHg 93%
15:00 -4°C° 0.1 mm 6 m/s 744 mmHg 93%
16:00 -4°C° 0.1 mm 5 m/s 744 mmHg 94%
17:00 -4°C° 0.1 mm 5 m/s 744 mmHg 94%
18:00 -4°C° 0 mm 5 m/s 744 mmHg 94%
19:00 -4°C° 0 mm 5 m/s 744 mmHg 95%
20:00 -2°C° 0 mm 4 m/s 744 mmHg 96%
21:00 -2°C° 0 mm 5 m/s 744 mmHg 96%
22:00 -2°C° 0 mm 5 m/s 744 mmHg 96%
23:00 -2°C° 0 mm 5 m/s 744 mmHg 96%
Mostrar mais

Necessitamos do seu Consentimento

A Meteoprog e os seus Fornecedores de Serviços podem armazenar e aceder a dados pessoais como cookies, identificadores do dispositivo ou outras tecnologias semelhantes existentes no seu dispositivo e processar estes dados para personalizar conteúdos e anúncios, assim como funcionalidades nas redes sociais e análise de tráfego.

  • Armazenar e/ou aceder a informações no seu dispositivo

    Os cookies, identificadores do dispositivo ou outras informações podem ser armazenados ou acedidos no seu dispositivo, para os fins acima indicados.

  • Anúncios e conteúdos personalizados, medição de anúncios e conteúdos, dados sobre o público-alvo e desenvolvimento de produtos

    Os anúncios e os conteúdos podem ser personalizados com base num perfil. Podem ser adicionados dados adicionais para uma maior personalização dos anúncios e dos conteúdos. A eficácia dos anúncios e dos conteúdos pode ser medida. Podem ser obtidas informações sobre o público que visualizou os anúncios e os conteúdos. Estes dados podem ser usados para desenvolver ou melhorar sistemas, softwares ou a experiência do utilizador.

Ao clicar em "Eu concordo”, permitirá o uso de cookies, identificadores do dispositivo e web beacons mencionados ou outras tecnologias semelhantes. As configurações do navegador do seu dispositivo podem ser alteradas.

Para certos fins, podem ser invocados interesses legítimos ao invés de consentimento. Pode ler mais informação sobre este assunto na nossa Política de Privacidade e Cookies.